This is the latest recevied weather packets stored in our database for station/object K7KAR-2. If no packets are shown the sender has not sent any weather packets the latest 10 day(s).
| Time | Temp. | Humidity | Pressure | Rain* | Wind** | Luminosity | Snow |
|---|---|---|---|---|---|---|---|
| 1777683198 | 21.11° C | 10% | 1015.6 hPa | 0 mm | - | 48 W/m² | - |
| 1777682895 | 21.11° C | 10% | 1015.6 hPa | 0 mm | - | 50 W/m² | - |
| 1777682591 | 21.11° C | 10% | 1015.6 hPa | 0 mm | - | 55 W/m² | - |
| 1777682289 | 21.67° C | 10% | 1015.8 hPa | 0 mm | - | 57 W/m² | - |
| 1777681986 | 21.67° C | 10% | 1015.6 hPa | 0 mm | - | 60 W/m² | - |
| 1777681682 | 22.22° C | 10% | 1015.6 hPa | 0 mm | - | 63 W/m² | - |
| 1777681379 | 21.67° C | 10% | 1015.8 hPa | 0 mm | - | 66 W/m² | - |
| 1777681076 | 22.78° C | 10% | 1015.7 hPa | 0 mm | - | 70 W/m² | - |
| 1777680775 | 22.78° C | 10% | 1016 hPa | 0 mm | - | 74 W/m² | - |
| 1777680472 | 22.22° C | 10% | 1015.8 hPa | 0 mm | - | 80 W/m² | - |
| 1777680170 | 22.78° C | 10% | 1015.9 hPa | 0 mm | - | 131 W/m² | - |
| 1777679864 | 22.22° C | 10% | 1016 hPa | 0 mm | - | 147 W/m² | - |
| 1777679561 | 22.78° C | 10% | 1016 hPa | 0 mm | - | 172 W/m² | - |
| 1777679257 | 22.22° C | 10% | 1016 hPa | 0 mm | - | 170 W/m² | - |
| 1777678954 | 22.22° C | 10% | 1015.9 hPa | 0 mm | - | 189 W/m² | - |
| 1777678652 | 22.22° C | 10% | 1015.8 hPa | 0 mm | - | 205 W/m² | - |
| 1777678350 | 22.22° C | 10% | 1015.9 hPa | 0 mm | - | 224 W/m² | - |
| 1777678044 | 21.67° C | 10% | 1015.9 hPa | 0 mm | - | 239 W/m² | - |
| 1777677742 | 21.67° C | 10% | 1016 hPa | 0 mm | - | 276 W/m² | - |
| 1777677439 | 21.67° C | 10% | 1016 hPa | 0 mm | - | 286 W/m² | - |
| 1777677137 | 21.11° C | 10% | 1015.8 hPa | 0 mm | - | 311 W/m² | - |
| 1777676836 | 21.67° C | 10% | 1015.9 hPa | 0 mm | - | 336 W/m² | - |
| 1777676534 | 21.67° C | 10% | 1015.9 hPa | 0 mm | - | 353 W/m² | - |
| 1777676231 | 22.22° C | 10% | 1016.5 hPa | 0 mm | - | 374 W/m² | - |
| 1777675928 | 21.67° C | 10% | 1016.4 hPa | 0 mm | - | 400 W/m² | - |
* Rain latest hour (hover to see other rain measurements)
** Current wind speed in m/s (hover to see current wind gust speed)